Regional Weather Roundup
Issued by NWS Cleveland, OH

Home | Current Version | Previous Version | Graphics & Text | Print | Product List | Glossary On
Versions: 1 2 3 4 5 6 7 8 9 10 11 12 13 14 15 16 17 18 19 20 21 22 23 24 25 26 27 28 29 30 31 32 33 34 35 36 37 38 39 40 41 42 43 44 45 46 47 48 49 50
000
ASUS41 KCLE 192010
RWRCLE
OHIO REGIONAL WEATHER ROUNDUP
NATIONAL WEATHER SERVICE CLEVELAND, OH
300 PM EST FRI DEC 19 2014

NOTE: "FAIR" INDICATES FEW OR NO CLOUDS BELOW 12,000 FEET WITH NO
SIGNIFICANT WEATHER AND/OR OBSTRUCTIONS TO VISIBILITY.

OHZ001>008-015>018-024>027-034-035-043-044-192100-
   NORTHWEST OHIO

CITY           SKY/WX    TMP DP  RH WIND       PRES   REMARKS
DEFIANCE       CLOUDY    31  22  69 CALM      30.26R
FINDLAY        CLOUDY    31  25  78 CALM      30.24R
TOLEDO EXPRESS CLOUDY    30  25  81 CALM      30.25R
TOLEDO EXEC    CLOUDY    30  23  75 NE3       30.26S
LIMA           CLOUDY    32  23  69 CALM      30.24R
$$

OHZ009>014-019>023-028>033-038-089-192100-
   NORTHEAST OHIO

CITY           SKY/WX    TMP DP  RH WIND       PRES   REMARKS
CLE-HOPKINS    CLOUDY    31  22  69 N6        30.26S WCI  25
CLE-LAKEFRONT  CLOUDY    32  22  66 NW7       30.23F WCI  26
CUY CO. ARPT   CLOUDY    34  23  64 N9        30.23F WCI  26
LORAIN-ELYRIA  CLOUDY    30  23  75 NW6       30.25R WCI  24
ASHTABULA      PTSUNNY   30  19  63 NW9       30.21S WCI  22
AKRON-CANTON   CLOUDY    31  24  75 VRB5      30.21R WCI  26
WOOSTER        CLOUDY    30  24  78 N5        30.22S WCI  25
MANSFIELD      CLOUDY    28  23  81 NW6       30.22  WCI  22
YOUNGSTOWN     CLOUDY    31  22  69 NW6       30.19R WCI  25
$$

OHZ042-051>053-060>062-070>072-077>081-192100-
  SOUTHWEST OHIO

CITY           SKY/WX    TMP DP  RH WIND       PRES   REMARKS
CINC-COVINGTON CLOUDY    30  19  63 CALM      30.25S
CINC-LUNKEN    CLOUDY    31  21  66 CALM      30.29S
HAMILTON       CLOUDY    32  22  66 CALM      30.28S
DAYTON         CLOUDY    31  23  72 W3        30.25S
WRIGHT-PAT AFB CLOUDY    30  22  72 W1        30.25S
DAYTON GENERAL CLOUDY    31  22  69 CALM      30.24S
WILMINGTON     CLOUDY    29  21  72 CALM      30.23S
$$

OHZ036-037-039>041-045>050-054>059-063>069-073>076-082>088-192100-
  CENTRAL AND SOUTHEAST OHIO

CITY           SKY/WX    TMP DP  RH WIND       PRES   REMARKS
COLUMBUS       CLOUDY    30  22  72 CALM      30.26R
OSU AIRPORT    CLOUDY    30  23  75 CALM      30.25R
BOLTON FIELD   CLOUDY    30  25  80 CALM      30.26R
RICKENBACK AFB CLOUDY    30  23  75 CALM      30.26R
NEWARK         CLOUDY    31  22  69 W5        30.25R WCI  26
MARION         CLOUDY    29  23  78 CALM      30.24R HAZE
LANCASTER      CLOUDY    31  23  72 CALM      30.26R
ZANESVILLE     CLOUDY    29  24  82 SW3       30.24S
NEW PHILLY     CLOUDY    32  25  75 W3        30.23S
$$


USA.gov is the U.S. government's official web portal to all federal, state and local government web resources and services.